Content
SEND FEEDBACK

Daily
Averages
Monthly
Summary
United States of America

ST. LOUIS, MISSOURI


Home > North America > United States > Missouri
Elevation: 535 feet     Latitude: 38 45N     Longitude: 090 22W

WEATHER
 
SELECT A DAY
Number of Records: 201,291;   Date Range: 1/1/95 - 12/20/14
 
SHARE

PRINT THIS DATA

[ ← Previous Day ]
WEATHER ALMANAC - APRIL 1, 2014
[ Next Day → ]
[ °C ]   °F
Weather ElementAverageHighLow
Temperature50.7 °F59 °F (1:54 am)41 °F (7:54 am)
Dewpoint31.8 °F45 °F (1:54 am)21 °F (8:54 am)
Humidity51.2 %80 % (11:54 pm)27 % (2:54 pm)
Barometer30.03 in30.10 in (9:54 am)29.87 in (1:54 am)
Wind Speed9 mph18.4 mph (4:54 am)
Wind Gust24.2 mph (4:54 am)
Weather ElementAverage
Visibility10 mi
Wind DirectionSSE (170.4 °)

Weather ElementTotal
Precipitation0.02 in
Heating Degree Days15 (Base 65)
Averaged from 23 records on April 1, 2014
WEATHER CONDITIONS BREAKOUT
WIND DIRECTION BREAKOUT
WEATHER BY HOUR - APRIL 1, 2014
[ °C ]   °F
Local TimeTemperatureDewpointHumidityBarometerVisibilityWind DirectionWind SpeedGust SpeedPrecipitationEventsConditions
1:54 AM59.0 °F45.0 °F60 %29.87 in10.0 miSW (230°)13.8 mph23.0 mphClear
2:54 AM55.0 °F45.0 °F69 %29.90 in10.0 miWest (260°)11.5 mphPartly Cloudy
3:54 AM54.0 °F30.0 °F40 %29.91 in10.0 miWest (260°)13.8 mphClear
4:54 AM50.0 °F28.0 °F43 %29.94 in10.0 miWest (270°)18.4 mph24.2 mphClear
5:54 AM46.0 °F25.0 °F44 %29.98 in10.0 miWest (280°)13.8 mph21.9 mphClear
6:54 AM42.1 °F23.0 °F47 %30.02 in10.0 miWest (270°)13.8 mphClear
7:54 AM41.0 °F21.9 °F47 %30.05 in10.0 miWest (260°)11.5 mph17.3 mphClear
8:54 AM42.1 °F21.0 °F43 %30.07 in10.0 miWSW (250°)17.3 mphClear
9:54 AM44.1 °F21.9 °F42 %30.10 in10.0 miWSW (250°)16.1 mphClear
10:54 AM46.9 °F24.1 °F41 %30.10 in10.0 miWest (270°)9.2 mphClear
11:54 AM52.0 °F25.0 °F35 %30.09 in10.0 miWSW (250°)9.2 mphPartly Cloudy
12:54 PM55.9 °F26.1 °F32 %30.09 in10.0 miNNW (330°)9.2 mphMostly Cloudy
1:54 PM57.0 °F25.0 °F29 %30.07 in10.0 miVariable4.6 mphScattered Clouds
2:54 PM59.0 °F25.0 °F27 %30.05 in10.0 miNNE (30°)4.6 mphScattered Clouds
3:54 PM59.0 °F27.0 °F29 %30.04 in10.0 miNE (50°)4.6 mphMostly Cloudy
4:54 PM57.0 °F28.9 °F34 %30.06 in10.0 miNW (320°)3.5 mph0.00 inOvercast
5:54 PM52.0 °F43.0 °F71 %30.07 in10.0 miCalm0.01 inOvercast
6:54 PM51.1 °F41.0 °F68 %30.03 in10.0 miSE (130°)4.6 mph0.01 inOvercast
7:54 PM51.1 °F42.1 °F71 %30.03 in10.0 miCalm0.00 inOvercast
8:54 PM48.9 °F39.9 °F71 %30.05 in10.0 miNE (40°)6.9 mphMostly Cloudy
9:54 PM48.0 °F41.0 °F77 %30.05 in10.0 miNE (50°)5.8 mphOvercast
10:54 PM48.0 °F41.0 °F77 %30.04 in10.0 miENE (70°)5.8 mphOvercast
11:54 PM48.0 °F42.1 °F80 %30.05 in10.0 miNE (50°)8.1 mphOvercast
Hourly data recorded from KSUS, located miles away from St. Louis, Missouri







STORIES FROM OUR PARTNERS